Location: Christianberg
(48.9086°N, 14.0209°E)
Time: 21:56:51
(UTC+00:00)

MSX - Pass Details

Date: 20 June 2021
Orbit: 894 x 907 km, 98.8° (Epoch: 04 August)

Event Time Altitude Azimuth Distance (km) Brightness Sun altitude
Rises 02:09:41 0° 15° (NNE) 3,542 8.2 -6.8°
Reaches altitude 10° 02:12:06 10° 16° (NNE) 2,595 7.4 -6.6°
Maximum altitude 02:17:54 85° 105° (ESE) 911 4.0 -5.9°
Drops below altitude 10° 02:23:39 10° 195° (SSW) 2,568 5.7 -5.3°
Enters shadow 02:25:42 - 196° (SSW) 3,368 6.3 -5.0°
